K5IUC Weather Reports


time (UTC)temp
C
wind
direction
speed
KPH
gust
KPH
rain 1hr
cm
rain 24hr
cm
rain mn
cm
humidity
%
barometer
mb
20260506165616 11 45 11.3 17.7 0.00 0.15 0.15 95 1011.8
20260506164616 11 23 12.9 20.9 0.00 0.15 0.15 95 1011.8
20260506163616 11 23 8.0 14.5 0.00 0.15 0.15 95 1011.6
20260506162616 11 45 6.4 9.7 0.00 0.15 0.15 95 1011.8
20260506161636 11 23 11.3 17.7 0.00 0.15 0.15 95 1011.8
20260506160615 11 23 12.9 16.1 0.00 0.15 0.15 95 1011.8
20260506155615 11 23 6.4 9.7 0.10 0.15 0.15 95 1011.6
20260506154616 11 23 9.7 17.7 0.15 0.15 0.15 95 1012.1
20260506153635 11 45 12.9 20.9 0.15 0.15 0.15 95 1011.2
20260506152638 11 45 8.0 12.9 0.15 0.15 0.15 94 1010.9
20260506151618 11 23 11.3 12.9 0.15 0.15 0.15 94 1011.8
20260506150616 11 315 6.4 9.7 0.15 0.15 0.15 93 1013.5
20260506145638 11 45 12.9 19.3 0.05 0.05 0.05 90 1012.5
20260506144615 12 315 1.6 4.8 0.00 0.00 0.00 84 1013.2
20260506143617 12 45 6.4 11.3 0.00 0.00 0.00 81 1012.9
20260506142617 12 315 9.7 12.9 0.00 0.00 0.00 80 1011.7
20260506141617 12 23 9.7 14.5 0.00 0.00 0.00 80 1011.3
20260506140616 12 23 12.9 20.9 0.00 0.00 0.00 80 1011.7
20260506135637 12 0 8.0 11.3 0.00 0.00 0.00 81 1011.3
20260506134617 12 23 12.9 19.3 0.00 0.00 0.00 80 1011.5
20260506133638 12 23 14.5 17.7 0.00 0.00 0.00 79 1011.0
20260506132618 12 23 9.7 14.5 0.00 0.00 0.00 79 1010.9
20260506131617 12 0 11.3 20.9 0.00 0.00 0.00 78 1010.8
20260506130637 13 0 9.7 16.1 0.00 0.00 0.00 77 1010.5
20260506125617 13 45 8.0 12.9 0.00 0.00 0.00 77 1010.2
20260506124637 13 45 9.7 14.5 0.00 0.00 0.00 76 1010.2
20260506123617 13 338 11.3 17.7 0.00 0.00 0.00 75 1010.2
20260506122617 13 45 8.0 12.9 0.00 0.00 0.00 75 1010.2
20260506121617 13 45 9.7 12.9 0.00 0.00 0.00 75 1009.6
20260506120617 13 45 12.9 19.3 0.00 0.00 0.00 75 1009.7
20260506115617 13 23 11.3 17.7 0.00 0.00 0.00 74 1009.6
20260506114617 13 0 11.3 17.7 0.00 0.00 0.00 74 1009.7
20260506113617 14 45 6.4 11.3 0.00 0.00 0.00 75 1009.5
20260506112617 14 45 11.3 14.5 0.00 0.00 0.00 74 1009.3
20260506111619 14 315 9.7 16.1 0.00 0.00 0.00 74 1009.3
20260506110617 14 0 9.7 14.5 0.00 0.00 0.00 74 1009.0
20260506105617 14 23 11.3 19.3 0.00 0.00 0.00 74 1009.1
20260506104617 15 0 9.7 14.5 0.00 0.00 0.00 74 1008.7
20260506103617 15 338 6.4 9.7 0.00 0.00 0.00 74 1008.8
20260506102617 15 23 8.0 12.9 0.00 0.00 0.00 74 1008.5
20260506101617 15 23 8.0 12.9 0.00 0.00 0.00 74 1008.3
20260506100637 15 23 11.3 12.9 0.00 0.00 0.00 75 1008.1
20260506095617 15 23 6.4 9.7 0.00 0.00 0.00 75 1008.1
20260506094657 15 23 8.0 11.3 0.00 0.00 0.00 74 1008.0
20260506093617 15 45 11.3 16.1 0.00 0.00 0.00 75 1008.1
20260506092616 16 45 11.3 14.5 0.00 0.00 0.00 74 1008.0
20260506091617 16 0 8.0 14.5 0.00 0.00 0.00 75 1007.8
20260506090617 16 45 4.8 8.0 0.00 0.00 0.00 75 1007.8
20260506085637 16 338 6.4 12.9 0.00 0.00 0.00 75 1007.8
20260506084637 16 0 6.4 11.3 0.00 0.00 0.00 76 1007.7
20260506083616 16 0 3.2 6.4 0.00 0.00 0.00 76 1007.5
20260506082617 16 0 4.8 6.4 0.00 0.00 0.00 76 1007.5
20260506081617 16 0 6.4 14.5 0.00 0.00 0.00 76 1007.4
20260506080617 16 338 8.0 9.7 0.00 0.00 0.00 77 1007.2
20260506072617 16 45 8.0 11.3 0.00 0.00 0.00 77 1007.2
20260506071616 17 23 4.8 9.7 0.00 0.00 0.00 77 1007.0
20260506070617 16 45 8.0 12.9 0.00 0.00 0.00 77 1007.1
20260506061637 17 338 8.0 12.9 0.00 0.00 0.00 76 1007.0
20260506060617 17 45 9.7 14.5 0.00 0.00 0.00 77 1006.8
20260506050616 18 338 9.7 14.5 0.00 0.00 0.00 75 1007.3
20260506044617 18 23 11.3 16.1 0.00 0.00 0.00 74 1006.8
20260506043617 19 23 11.3 16.1 0.00 0.00 0.00 74 1006.9
20260506042617 20 0 12.9 20.9 0.00 0.00 0.00 73 1007.3
20260506041617 20 0 11.3 16.1 0.00 0.00 0.00 73 1007.2
20260506040617 20 0 8.0 9.7 0.00 0.00 0.00 73 1006.8
20260506035637 20 23 12.9 24.1 0.00 0.00 0.00 72 1006.5
20260506034617 20 23 8.0 12.9 0.00 0.00 0.00 72 1006.0
20260506033617 21 23 9.7 14.5 0.00 0.00 0.00 71 1006.1
20260506032617 21 23 11.3 16.1 0.00 0.00 0.00 70 1005.8
20260506031617 21 338 9.7 14.5 0.00 0.00 0.00 69 1005.6
20260506030617 21 338 6.4 12.9 0.00 0.00 0.00 69 1005.6
20260506025617 21 45 12.9 19.3 0.00 0.00 0.00 69 1005.4
20260506024617 22 45 11.3 16.1 0.00 0.00 0.00 70 1005.6
20260506023617 22 45 16.1 20.9 0.00 0.00 0.00 69 1005.2
20260506022617 22 0 11.3 17.7 0.00 0.00 0.00 68 1005.1
20260506021617 22 45 8.0 14.5 0.00 0.00 0.00 68 1004.8
20260506020617 23 338 9.7 14.5 0.00 0.00 0.00 67 1004.7
20260506015617 23 45 11.3 16.1 0.00 0.00 0.00 67 1004.2
20260506014617 23 23 8.0 12.9 0.00 0.00 0.00 67 1003.8
20260506013617 24 23 14.5 20.9 0.00 0.00 0.00 67 1003.7
20260506012617 25 45 9.7 14.5 0.00 0.00 0.00 66 1003.7
20260506011617 25 0 8.0 12.9 0.00 0.00 0.00 65 1003.6
20260506010617 25 45 14.5 20.9 0.00 0.00 0.00 63 1003.3
20260506005617 26 45 9.7 12.9 0.00 0.00 0.00 63 1003.3
20260506004617 26 45 11.3 17.7 0.00 0.00 0.00 62 1003.1
20260506003619 26 23 9.7 14.5 0.00 0.00 0.00 61 1003.1
20260506002617 27 0 4.8 8.0 0.00 0.00 0.00 60 1003.1
20260506001617 27 23 3.2 6.4 0.00 0.00 0.00 59 1003.0
20260506000616 27 0 9.7 22.5 0.00 0.00 0.00 58 1003.1
20260505235617 28 338 11.3 16.1 0.00 0.00 0.00 57 1002.9
20260505234617 28 0 6.4 11.3 0.00 0.00 0.00 57 1002.7
20260505233617 28 338 8.0 12.9 0.00 0.00 0.00 57 1002.9
20260505232617 30 0 9.7 16.1 0.00 0.00 0.00 54 1002.7
20260505231616 31 338 8.0 11.3 0.00 0.00 0.00 49 1002.8
20260505230637 31 315 8.0 11.3 0.00 0.00 0.00 48 1002.5
20260505225617 31 338 8.0 14.5 0.00 0.00 0.00 48 1002.6
20260505224616 32 315 12.9 19.3 0.00 0.00 0.00 46 1002.6
20260505223616 33 315 6.4 8.0 0.00 0.00 0.00 46 1002.6
20260505222616 33 248 1.6 3.2 0.00 0.00 0.00 44 1002.6
20260505221616 33 270 6.4 8.0 0.00 0.00 0.00 45 1002.6
20260505220656 33 315 3.2 6.4 0.00 0.00 0.00 46 1002.5
20260505215616 33 293 8.0 12.9 0.00 0.00 0.00 45 1002.6
20260505214616 33 248 9.7 14.5 0.00 0.00 0.00 45 1002.3
20260505213616 33 225 6.4 11.3 0.00 0.00 0.00 44 1002.5
20260505212636 33 248 1.6 3.2 0.00 0.00 0.00 48 1002.4
20260505211617 33 225 6.4 9.7 0.00 0.00 0.00 47 1002.8
20260505210616 33 293 8.0 11.3 0.00 0.00 0.00 48 1002.8
20260505205616 32 225 4.8 9.7 0.00 0.00 0.00 50 1003.0
20260505204616 32 270 9.7 12.9 0.00 0.00 0.00 49 1003.1
20260505203616 32 293 4.8 9.7 0.00 0.00 0.00 52 1003.0
20260505202616 32 248 8.0 11.3 0.00 0.00 0.00 54 1003.2
20260505201616 32 248 9.7 19.3 0.00 0.00 0.00 55 1003.5
20260505200616 31 225 8.0 12.9 0.00 0.00 0.00 56 1003.4
20260505195616 31 225 14.5 25.7 0.00 0.00 0.00 56 1003.6
20260505194616 31 225 12.9 20.9 0.00 0.00 0.00 57 1003.6
20260505193617 31 248 14.5 20.9 0.00 0.00 0.00 57 1003.6
20260505192616 31 248 9.7 14.5 0.00 0.00 0.00 58 1003.6
20260505191616 31 225 17.7 24.1 0.00 0.00 0.00 58 1003.7
20260505190616 31 225 14.5 19.3 0.00 0.00 0.00 60 1003.6
20260505185616 30 225 11.3 16.1 0.00 0.00 0.00 60 1003.5
20260505184616 30 270 12.9 19.3 0.00 0.00 0.00 62 1003.7
20260505183616 30 225 12.9 19.3 0.00 0.00 0.00 62 1003.8
20260505182615 30 203 11.3 14.5 0.00 0.00 0.00 64 1003.8
20260505181636 30 225 14.5 19.3 0.00 0.00 0.00 65 1003.8
20260505180616 29 225 12.9 19.3 0.00 0.00 0.00 65 1003.7
20260505175616 29 225 14.5 17.7 0.00 0.00 0.00 65 1003.8
20260505174616 28 225 12.9 24.1 0.00 0.00 0.00 67 1003.6
20260505173616 28 203 14.5 19.3 0.00 0.00 0.00 66 1003.8
20260505172636 28 225 9.7 17.7 0.00 0.00 0.00 68 1003.8
20260505171636 27 225 9.7 19.3 0.00 0.00 0.00 68 1003.7
20260505170616 28 248 11.3 17.7 0.00 0.00 0.00 68 1003.8